Location: Warszawa
(52.2500°N, 21.0000°E)
Time: 15:07:24
(UTC+01:00)

Vanguard 1 - Visible Passes

Search period start: 27 January 2023 00:00
Search period end: 06 February 2023 00:00
Orbit: 649 x 3831 km, 34.3° (Epoch: 26 January)

Date Brightness Start Highest point End Pass type
(mag) Time Alt. Az. Time Alt. Az. Time Alt. Az.
27 Jan 13.1 05:31:58 10° S 05:40:11 24° SE 05:52:16 10° E visible
28 Jan 13.0 05:51:20 10° SSW 06:00:04 28° SSE 06:13:28 10° E visible
29 Jan 13.2 03:58:32 10° SE 04:01:24 11° SE 04:04:40 10° ESE visible
29 Jan 12.9 06:10:59 10° SSW 06:20:05 31° SSE 06:34:28 10° ESE visible
30 Jan 13.0 04:15:59 10° SSE 04:21:03 15° SE 04:27:38 10° ESE visible
30 Jan 12.9 06:30:49 10° SW 06:40:12 34° SSE 06:55:18 10° ESE visible
31 Jan 12.8 04:34:43 10° S 04:40:48 19° SE 04:49:22 10° ESE visible
01 Feb 12.7 04:53:59 10° SSW 05:00:40 23° SSE 05:10:37 10° ESE visible
02 Feb 12.6 05:13:35 10° SSW 05:20:39 26° SSE 05:31:38 10° ESE visible
03 Feb 12.7 03:20:10 10° SSE 03:22:09 11° SE 03:24:21 10° ESE visible
03 Feb 12.5 05:33:23 10° SW 05:40:45 29° SSE 05:52:27 10° ESE visible
04 Feb 12.5 03:38:15 11° S 03:41:56 15° SE 03:46:55 10° ESE visible
04 Feb 12.5 05:53:22 10° SW 06:00:56 30° SSE 06:13:07 10° ESE visible
05 Feb 12.3 03:57:53 12° S 04:01:49 18° SSE 04:08:21 10° ESE visible
05 Feb 12.5 06:13:28 10° SW 06:21:11 31° S 06:33:38 10° ESE visible
